Погода в Немино-3

Россия / Республика Карелия     62°36′58″N   35°48′14″E
темп.,
°C
ветер,
м/с
пор.,
м/с
влажн.,
%
обл.,
%
осадки,
мм/ч
давл.,
гПа
погр.,
м
8 мая, сб
сб800:00+3ю2499100 0.1 1007154
03:00+2юв2398100 0.1 100775
06:00+3юв2496100 0.1 1008149
09:00+7вюв3681100 0.1 1007387
12:00+10вюв61064100 0.0 10041044
15:00+7ююв61488100 2.2 1003912
18:00+7ююв61490100 0.3 1003669
21:00+3ю41088100 0.4 1004383
9 мая, вс
вс900:00+2ююз4892100 0.0 1004294
03:00+2зюз3692100 0.2 1005361
06:00+2зсз51090100 0.1 1006628
09:00+3зсз597415 0.1 1008657
12:00+6зсз585617 0.0 10091014
15:00+7зсз484663 0.0 10121539
18:00+7зсз58535 0.0 10131171
21:00+4з35670 0.0 101569
10 мая, пн
пн1000:00+3юз36745 0.0 101790
03:00+2ююз358478 0.0 101874
06:00+3ю487966 0.0 1019218
09:00+6ююз467099 0.0 1020303
12:00+8ююз576368 0.0 1020486
15:00+8ююз61068100 0.0 1021744
18:00+5ю41095100 0.8 1021318
21:00+5ю51297100 3.0 1021350
11 мая, вт
вт1100:00+6ююз51299100 0.4 1021267
03:00+7ю41099100 1.6 1021185
06:00+7ю489979 0.0 1022158
09:00+9ю51094100 0.0 1023243
12:00+13ююз6118066 0.0 1023417
15:00+15ююз612635 0.0 1023683
18:00+14ююз41166100 0.0 1024444
21:00+10ю3881100 0.0 1024109
12 мая, ср
ср1200:00+9ю4884100 0.0 1025113
03:00+8ю3789100 0.0 1025101
06:00+8ю379069 0.0 1026126
09:00+11ю46774 0.0 1026202
12:00+14ю58681 0.0 1026357
15:00+16ююз59594 0.0 1025524
18:00+16ю37625 0.0 1025232
21:00+12ю237538 0.0 102534